CAPE
1809 1922 1784 1768 1660 1438 1786 1530 1311 1340 1410 1542 1813 1922 1992 2302 2550 2651 2848 2816 2625 2304 2054 1786 1506 1442 1518 1680 1528 1156 1102 1115 1057 1135 1233 1088 816 801 672 536 471 522 594 545 564 591 572 531 592 640 605 626 615 573 752 797 717 844 762 547 689 708 421 463 610 809 1275 924 1081 1021 1115 769 877 1117 713 834 830 974 1223 1292 1225 1156 1179 1317 1368
1818 1838 1657 1645 1748 1627 1695 1803 1622 1406 1415 1430 1389 1571 1874 2134 2624 2598 2799 2669 2585 2255 1840 1705 1670 1786 1690 1424 1329 1276 1183 1135 1030 1043 1093 988 868 652 825 637 518 660 498 473 490 654 534 498 539 563 616 644 570 570 586 572 680 673 614 620 682 675 830 897 728 1094 801 687 871 818 793 937 868 985 952 768 914 764 882 1036 995 1054 1002 975 949
1900 1853 1873 1943 1970 1839 1776 1852 1876 1698 1678 1750 1483 1686 1840 2156 2590 2541 2787 2776 2536 2220 1807 1768 1432 975 1249 952 924 632 712 711 637 585 525 522 546 650 620 685 758 723 574 464 515 482 475 500 475 558 670 583 586 660 778 761 662 607 723 963 701 663 684 719 707 824 1361 1170 1315 1039 926 585 1061 973 1035 1017 960 1022 918 765 534 1006 1036 825 914
1951 2008 2061 2136 2120 1918 1909 1974 2011 2002 1967 1909 1522 1534 1669 1993 1990 2347 2652 2825 2562 2319 1941 1660 1178 790 689 718 566 558 579 517 370 103 112 98 68 34 102 313 716 962 525 542 518 420 564 657 476 499 577 700 678 690 709 695 674 603 646 986 858 1032 667 628 642 634 998 1230 1008 1012 926 913 892 1156 1175 1025 741 740 914 799 709 451 857 846 1046
2078 2146 2199 2267 2111 1795 1890 1960 1968 1954 1935 1869 1460 1358 1434 1780 1924 2294 2520 2688 2708 2261 1842 1505 1000 660 570 514 396 348 380 349 311 211 316 137 30 70 5 11 91 377 589 781 754 503 464 455 442 401 459 463 602 757 720 845 788 820 791 836 942 1109 946 698 606 634 615 602 926 783 818 665 970 1096 828 1204 570 739 727 633 692 592 792 999 1089
2055 2291 2321 2350 2254 1884 1773 1631 1595 1611 1628 1365 1161 1116 1275 1434 1917 2237 2307 2530 2464 1966 1676 1423 874 568 604 666 697 604 449 469 367 293 214 206 21 0 0 0 24 198 574 1045 838 490 395 328 320 378 516 566 676 672 550 559 617 713 634 946 734 748 1064 691 675 502 503 597 620 566 632 492 1091 919 952 1307 474 449 288 457 510 594 848 728 612
1667 2180 2398 2473 2436 2048 1789 1418 1182 1333 1275 1013 783 746 835 982 1403 1824 2050 2340 2144 1634 1460 1311 771 930 1346 1362 1126 866 486 232 149 217 222 5 1 0 0 0 5 451 644 979 1201 1029 696 362 390 534 604 666 559 574 597 593 615 546 498 815 838 562 672 857 629 809 528 514 493 590 501 624 955 1150 1012 1191 1075 65 155 240 401 336 341 355 428
1564 1984 2356 2557 2543 2050 1766 1467 1179 1088 1034 998 961 782 795 847 997 1354 1772 2168 2089 1506 1241 1157 900 813 878 904 855 706 550 238 203 112 58 2 0 0 0 0 3 200 572 485 745 911 960 909 917 964 849 711 681 632 399 281 369 347 404 556 636 688 700 949 815 663 614 776 600 750 489 405 667 699 1075 1098 935 230 0 0 0 0 0 88 140
1629 1662 2285 2613 2590 2156 1742 1598 1327 1157 1170 1223 1120 885 876 925 1023 1169 1551 2015 2115 1656 1106 759 610 636 793 743 503 398 418 245 149 58 9 2 0 0 10 0 11 0 5 126 194 396 530 846 872 908 897 787 506 465 338 358 442 563 600 598 571 609 608 745 701 612 464 435 480 401 435 372 278 421 634 935 732 268 2 0 0 0 0 9 11
1629 1725 2113 2596 2632 2256 1888 1867 1720 1490 1185 1306 1303 1140 973 1125 1298 1468 1709 1923 1892 1298 857 470 325 418 706 864 644 417 305 204 158 100 34 48 5 0 21 55 34 31 0 0 2 15 119 241 392 497 680 510 286 312 295 413 513 505 598 671 642 674 599 761 585 425 489 385 574 414 306 222 297 163 184 305 445 173 7 0 0 6 0 2 0
1921 2065 2222 2544 2653 2463 2262 2248 2307 2076 1458 1394 1404 1318 975 1238 1367 1471 1584 1597 1272 976 608 357 199 481 757 937 864 584 405 278 171 97 32 60 1 2 24 4 12 6 4 0 0 0 11 51 187 216 264 108 28 78 349 245 266 245 132 260 383 605 473 267 166 317 250 223 281 334 588 385 378 141 36 0 0 0 3 1 5 0 0 7 0
1777 1821 2018 2215 2484 2491 2418 2396 2321 1995 1612 1497 1430 1130 895 1166 1246 1263 1261 1143 975 960 500 278 246 356 559 933 957 726 538 469 345 178 103 60 18 0 0 0 0 0 1 0 0 0 4 13 6 22 9 30 20 24 24 42 16 8 14 15 6 4 18 105 260 97 13 28 113 86 68 36 0 0 0 5 0 0 0 0 7 7 5 0 1
1582 1574 1594 1617 1742 2026 2171 2161 2084 1950 1774 1585 1376 969 842 1015 934 851 1011 830 872 842 338 211 215 217 290 667 906 720 647 601 423 247 171 92 30 0 0 0 0 0 0 0 0 0 0 2 28 31 6 3 1 1 0 0 0 0 0 0 1 4 8 5 0 1 2 0 0 0 4 0 0 0 0 0 127 21 0 0 0 0 2 3 0
1468 1445 1516 1540 1413 1415 1642 1825 1821 1756 1654 1532 1095 794 746 900 635 637 668 568 776 726 135 44 117 171 256 563 645 508 654 660 396 164 178 105 52 27 2 5 2 3 0 0 0 0 0 0 0 0 0 0 0 0 0 0 0 0 0 0 0 0 0 0 0 0 0 0 0 0 0 0 0 0 0 0 0 9 4 0 0 0 0 0 0
1274 1284 1348 1469 1534 1540 1382 1342 1451 1517 1645 1433 841 769 795 904 580 500 412 513 686 553 22 94 80 66 68 275 496 559 496 390 299 181 87 50 50 33 10 25 15 0 0 0 0 0 0 0 0 0 0 0 0 0 0 0 0 0 0 0 0 0 0 0 0 0 0 0 0 0 0 0 0 0 0 0 0 0 0 0 0 0 0 0 0
1070 1174 1246 1330 1337 1246 1026 866 1418 1274 1283 1170 743 765 824 736 573 396 343 435 468 479 124 118 144 168 153 270 308 285 239 334 143 32 89 148 49 25 17 18 9 2 2 2 0 0 0 0 0 0 0 0 0 0 0 0 0 0 0 0 0 0 0 0 0 0 0 0 0 0 0 0 0 0 0 0 0 0 0 0 0 0 0 0 0
972 1160 1200 1235 879 500 341 438 237 924 1066 876 640 582 812 650 450 449 354 29 315 402 166 217 286 356 420 431 288 234 309 402 248 113 48 31 9 49 90 43 21 23 9 28 0 0 0 0 0 0 0 0 0 0 0 0 0 0 0 0 0 0 0 0 0 0 0 0 0 0 0 0 0 0 0 0 0 0 0 0 0 0 0 0 0
974 1090 989 469 177 64 308 498 547 1027 867 715 475 643 877 955 647 545 225 383 268 353 192 299 357 392 418 367 262 302 360 444 226 201 176 51 20 0 0 2 37 21 55 21 21 1 37 0 0 0 0 0 0 0 0 0 0 0 0 0 0 0 0 0 0 0 0 0 0 0 0 0 0 0 0 0 0 0 0 0 0 0 0 0 0
882 539 404 168 236 105 490 635 671 689 677 781 861 1120 1323 1400 1204 760 366 560 672 509 404 329 337 329 279 273 308 170 187 364 335 376 193 130 3 0 0 85 66 4 24 53 2 0 1 0 10 1 3 0 0 0 0 0 0 0 0 0 0 0 0 0 0 0 0 0 0 0 0 0 0 0 0 0 0 0 0 0 0 0 0 0 0
85 111 194 130 294 279 903 863 775 795 758 748 976 1174 1386 1498 1461 1350 1426 1256 1257 850 646 561 361 372 395 384 254 191 216 150 279 278 264 239 10 0 0 12 168 37 102 148 47 0 1 0 0 0 0 0 0 0 0 0 0 0 0 0 0 0 0 0 0 0 0 0 0 0 0 0 0 0 0 0 0 0 0 0 0 0 0 0 0
411 257 410 749 883 955 836 861 902 860 859 838 942 1076 1226 1258 1385 1558 1549 1529 1417 1220 1096 979 788 550 513 508 414 220 281 212 219 318 401 382 99 0 14 31 1 63 37 60 32 4 0 0 0 0 0 0 0 0 0 0 0 0 0 0 0 0 0 0 0 0 0 0 0 0 0 0 0 0 0 0 0 0 0 0 0 0 0 0 0
530 743 951 980 966 908 939 994 990 948 1001 954 898 1086 1143 1102 1250 1407 1518 1524 1379 1188 1064 975 867 771 728 634 490 304 296 266 362 351 506 479 116 5 0 0 23 7 27 26 25 32 4 0 0 0 0 0 0 0 0 0 0 0 0 0 0 0 0 0 0 0 0 0 0 0 0 0 0 0 0 0 0 0 0 0 0 0 0 0 0
888 936 1003 1002 1034 1039 1038 1106 1207 1184 1206 1168 1120 1047 1032 1023 1147 1192 1183 1152 1078 1094 1028 973 918 912 817 707 570 471 422 348 477 201 495 453 273 48 0 18 8 15 15 39 60 59 14 2 0 0 0 0 0 0 0 0 0 0 0 0 0 0 0 0 0 0 0 0 0 0 0 0 0 0 0 0 0 0 0 0 0 0 0 0 0
670 730 760 784 826 883 995 1049 1036 997 983 967 921 852 812 816 831 850 858 904 908 897 901 906 878 826 774 705 625 564 599 531 489 508 113 82 453 294 90 73 50 100 50 73 127 103 60 57 85 64 67 43 8 7 1 0 0 0 0 0 0 0 0 0 0 0 0 0 0 0 0 0 0 0 0 0 0 0 0 0 0 0 0 0 0
526 512 546 574 602 620 628 684 826 919 919 882 865 850 800 853 867 859 864 822 853 826 827 864 904 870 819 784 747 696 649 646 737 657 689 298 343 507 274 130 207 265 320 252 167 110 174 118 232 148 138 84 58 40 24 34 111 43 0 0 0 0 0 0 0 0 0 0 0 0 0 0 0 0 0 0 0 0 0 0 0 0 0 0 0
574 563 553 566 564 558 547 526 528 527 553 612 687 791 848 840 839 863 794 777 750 773 793 825 874 906 882 834 775 742 731 713 677 670 708 627 635 560 385 358 324 377 358 321 213 286 273 248 129 115 149 160 162 172 101 71 32 7 4 0 0 2 0 4 2 22 5 27 0 0 0 0 0 0 0 0 0 0 0 0 0 0 0 0 0
633 628 646 617 613 628 602 579 540 556 586 601 642 706 730 743 742 714 753 766 755 757 788 781 790 866 922 894 869 832 796 801 782 731 684 619 561 672 602 505 517 554 511 444 114 23 116 170 260 299 249 158 110 103 189 182 71 19 0 0 2 0 0 0 1 0 2 0 14 21 0 0 0 0 0 0 0 0 0 0 0 0 0 0 0
592 610 634 665 637 639 630 596 582 588 601 605 649 685 698 731 735 694 660 659 706 696 731 709 751 817 863 955 982 943 858 766 785 568 521 572 609 665 622 627 492 448 478 413 265 249 291 239 96 355 395 259 206 259 336 325 205 132 64 37 24 20 0 0 0 0 95 0 42 0 35 0 0 0 0 2 0 0 0 0 0 0 0 0 0
205 204 496 572 615 600 533 559 568 626 668 698 709 692 698 678 647 653 570 585 643 650 663 664 710 758 806 849 821 798 703 432 327 417 428 438 460 459 41 12 234 608 579 483 454 397 411 212 256 432 315 320 354 414 476 575 503 258 240 251 209 181 56 7 4 0 22 65 173 153 114 0 0 0 1 0 0 0 0 0 0 0 0 0 0
217 185 177 160 153 155 146 134 436 520 561 560 580 610 574 581 653 627 603 505 494 478 480 493 518 532 552 619 665 696 716 601 359 336 403 426 408 414 398 192 175 534 629 643 622 661 649 572 309 321 289 11 144 324 81 0 1 158 225 81 70 82 68 74 65 102 97 17 2 3 0 62 0 0 0 0 0 0 0 0 0 2 0 0 1
222 209 195 184 162 154 108 56 12 0 0 0 0 204 298 382 470 495 536 515 532 536 524 519 491 440 454 489 526 558 557 565 532 454 358 331 414 50 56 48 26 569 52 236 470 423 454 436 5 168 324 397 453 346 0 0 228 333 356 357 328 316 277 244 203 185 179 185 184 154 60 165 158 97 0 0 0 0 2 6 0 0 0 0 0
201 166 162 124 74 38 8 0 0 0 0 0 0 0 0 0 0 42 104 288 374 415 439 459 496 550 565 566 558 524 496 464 450 463 441 421 442 447 132 333 502 244 262 183 290 295 395 24 29 231 543 601 580 14 357 472 439 426 443 466 420 400 384 379 359 359 335 307 257 206 185 185 0 0 0 57 0 6 0 0 6 7 13 5 3
114 56 28 10 4 2 0 0 0 0 0 0 0 0 0 0 0 0 0 0 0 0 28 169 278 406 424 431 490 549 566 521 462 402 343 397 432 431 556 114 486 533 326 325 403 368 18 32 268 404 432 435 590 363 292 362 445 484 457 427 388 509 482 503 379 359 359 375 377 373 386 372 267 204 133 14 0 0 6 0 14 27 17 20 9
3 0 0 0 0 0 0 0 0 0 0 0 0 0 0 0 0 0 0 0 0 0 0 0 0 0 146 225 302 430 448 427 542 429 372 382 370 214 299 59 230 73 199 23 7 27 69 56 316 398 416 340 376 374 417 496 490 442 386 358 363 787 827 690 511 387 366 328 252 234 269 303 316 319 305 269 234 191 54 8 5 6 12 22 15
15 12 10 11 9 4 4 3 2 0 0 0 0 0 0 0 0 1 2 0 0 0 0 0 0 0 0 0 0 0 0 73 230 401 610 486 241 58 20 56 82 80 25 29 13 13 62 37 236 237 203 326 423 560 594 556 479 412 340 317 169 149 273 337 239 145 86 109 139 143 206 233 276 305 281 225 165 22 0 0 0 7 12 14 16
47 34 29 33 34 33 29 28 21 17 14 10 16 2 0 0 0 0 0 0 0 0 0 0 0 0 0 0 0 0 0 0 0 0 0 22 9 27 29 34 21 17 29 42 51 44 19 31 30 25 23 39 171 420 581 541 472 408 354 276 46 15 189 106 1 0 0 0 0 4 13 194 247 282 174 153 152 72 24 0 1 5 9 6 2
14 23 30 25 16 6 4 2 2 3 1 0 0 0 0 0 1 0 0 0 0 0 0 0 0 0 0 0 0 0 0 0 0 0 0 0 0 0 0 0 0 0 0 0 2 0 0 0 0 0 12 31 0 0 202 459 469 446 356 281 89 22 0 0 0 0 0 0 0 0 11 148 212 251 182 158 134 56 1 0 1 2 0 0 0
10 18 17 17 12 8 5 3 2 1 0 0 0 0 0 0 0 0 0 0 0 0 0 0 0 0 0 0 0 0 0 0 1 0 0 0 0 0 0 0 0 0 0 0 0 0 0 0 0 13 24 154 7 0 0 66 342 411 364 242 90 19 0 0 0 0 0 0 0 0 0 0 14 86 71 14 0 0 0 0 1 0 0 3 5
2 4 5 4 4 1 1 0 0 0 0 0 1 3 4 5 2 1 0 0 0 0 0 0 0 0 0 0 0 0 0 0 0 0 0 0 0 0 0 0 0 0 0 0 0 0 0 0 0 0 0 3 0 0 0 0 197 266 286 259 142 0 0 0 0 0 0 0 0 0 0 0 0 0 0 0 0 0 0 1 0 0 0 2 2
0 0 0 0 0 0 0 0 0 0 0 0 0 0 0 0 0 6 7 2 0 0 0 0 0 0 0 0 0 0 0 0 0 0 0 0 0 0 0 0 0 1 0 0 0 0 0 0 0 0 0 0 0 0 0 0 0 193 237 225 137 0 0 0 0 0 0 0 0 0 0 0 0 0 0 0 0 0 0 0 0 1 2 1 0
0 0 0 0 0 0 0 0 0 0 0 0 0 0 0 0 0 0 0 0 0 0 0 0 0 0 0 0 0 0 0 1 27 10 0 0 0 0 0 0 0 0 0 0 0 0 0 0 0 0 0 0 0 0 0 0 0 58 62 40 8 0 0 0 0 0 0 0 0 0 0 0 0 0 0 0 1 2 1 3 2 0 0 0 1
0 0 0 0 0 0 0 0 0 0 0 0 0 0 0 0 0 0 0 0 0 0 0 0 0 0 0 0 0 0 0 0 0 1 6 6 0 0 0 0 0 0 0 0 0 0 0 0 0 0 0 0 0 0 0 0 0 0 0 6 6 6 0 0 0 0 0 0 0 0 0 0 0 0 0 0 0 0 0 0 0 0 1 1 0
0 0 0 0 0 0 0 0 0 0 0 0 0 0 0 0 0 0 0 0 0 0 0 0 0 0 0 0 0 0 0 2 3 1 4 91 46 17 2 0 0 0 0 0 0 0 0 0 0 0 0 0 0 0 0 0 0 19 78 85 96 90 64 0 0 0 0 0 0 0 0 0 0 0 0 0 0 0 0 0 0 0 0 2 1
0 0 0 0 0 0 0 0 0 0 0 0 0 0 0 0 0 0 0 0 0 0 0 0 0 0 0 0 0 0 0 0 0 0 1 1 44 5 8 4 32 40 26 8 0 0 0 0 0 0 0 0 0 0 0 0 0 0 0 0 0 0 0 0 0 0 0 0 0 0 0 0 0 0 0 0 0 0 0 0 0 0 0 0 0
0 0 0 0 0 0 0 0 0 0 0 0 0 0 0 0 0 0 0 0 0 0 0 0 0 0 0 0 0 0 0 0 0 0 0 0 7 7 6 6 4 45 42 2 4 1 2 1 5 4 0 0 0 0 0 0 0 0 0 0 0 0 0 0 0 0 0 0 0 0 0 0 0 0 0 0 0 0 0 0 0 0 0 0 0
0 0 0 0 0 0 0 0 0 0 0 0 0 0 0 0 0 0 0 0 0 0 0 0 0 0 0 0 0 0 0 0 0 0 0 0 5 6 15 31 3 7 10 3 4 3 6 12 16 14 6 0 0 0 0 0 0 0 0 0 0 0 0 0 0 0 0 0 2 3 2 1 0 0 0 0 0 0 0 0 0 0 0 0 0
0 0 0 0 0 0 0 0 0 0 0 0 0 0 0 0 0 0 0 0 0 0 0 0 0 0 0 0 0 0 0 1 2 0 0 0 0 4 4 74 36 114 120 125 1 0 0 0 14 0 0 0 0 0 0 0 0 0 0 0 0 0 0 0 1 0 0 0 0 0 0 0 0 0 0 0 0 0 0 0 0 0 0 0 0
0 0 0 0 0 0 0 0 0 0 0 0 0 0 0 0 0 0 0 0 0 0 0 0 0 0 0 0 0 0 0 0 0 7 8 7 4 5 8 146 164 222 176 206 50 14 25 29 67 6 0 0 0 0 0 0 0 0 0 0 0 0 0 0 0 0 0 0 0 0 0 0 0 0 0 0 0 0 0 0 0 0 0 0 0
0 0 0 1 0 0 0 1 1 1 1 0 0 0 0 0 0 0 0 0 0 0 0 0 0 0 0 0 0 0 0 0 0 0 9 16 16 14 14 15 30 235 207 254 145 14 18 40 25 2 0 0 0 0 0 0 0 0 0 0 0 0 0 0 0 0 0 0 0 0 0 0 0 0 0 0 0 0 0 0 0 0 0 0 0
0 0 1 0 1 0 0 0 0 1 1 0 0 0 0 0 0 0 0 0 0 0 0 0 0 0 0 0 0 0 0 0 0 0 0 12 13 22 13 19 3 8 0 1 5 164 174 78 13 6 16 39 10 1 0 0 0 0 0 0 0 0 0 0 0 0 0 0 0 0 0 0 0 0 0 0 0 0 0 0 0 0 0 0 0
0 0 0 0 1 1 1 2 2 2 1 0 0 0 0 0 0 0 2 1 0 0 0 0 0 0 0 0 0 0 0 0 0 0 5 23 12 16 18 19 15 6 2 3 4 0 0 0 98 55 1 0 0 0 0 0 0 0 0 0 0 0 0 0 0 0 0 0 0 0 0 0 0 0 0 0 0 0 0 0 0 0 0 0 0
Wind_Speed
18 22 23 23 22 17 16 21 19 14 8 6 6 7 7 6 5 9 11 14 13 12 14 15 14 13 11 10 12 15 17 17 17 17 17 16 16 16 16 16 16 16 17 17 16 16 15 16 17 19 18 18 17 17 17 19 19 20 22 20 19 20 15 15 14 12 14 15 15 15 17 18 18 18 19 20 21 23 23 24 24 25 25 24 24
18 21 20 20 17 16 13 15 19 16 10 7 7 7 6 5 6 12 13 13 12 12 15 15 13 11 11 11 13 15 16 17 19 18 18 17 16 15 15 15 16 16 16 17 17 17 17 17 18 19 19 19 18 18 20 20 19 20 20 20 17 17 17 15 15 14 14 13 14 15 15 17 17 17 18 20 21 21 22 22 23 24 25 25 25
12 14 16 14 14 13 10 11 14 13 13 9 7 8 8 7 9 13 12 11 11 13 16 16 14 13 13 13 15 16 15 18 20 20 19 19 17 15 13 12 13 15 16 16 17 17 17 18 19 19 19 19 18 19 20 21 20 20 19 19 19 19 18 17 17 15 16 17 16 15 15 14 17 16 18 20 21 21 20 20 20 22 23 24 25
4 8 9 10 11 12 10 9 10 11 13 12 11 11 11 10 12 13 12 12 14 15 18 20 19 17 17 17 16 17 19 20 23 21 20 nan nan nan 13 10 9 12 15 16 17 17 18 18 19 20 20 19 19 19 21 22 22 20 19 18 17 19 19 19 19 20 18 17 16 15 17 16 16 18 19 22 21 19 19 19 20 21 21 22 22
3 2 4 7 9 9 8 8 10 10 11 12 13 14 14 13 14 14 14 14 16 18 20 22 21 20 19 20 21 22 21 21 22 21 18 20 nan nan nan nan nan 11 12 14 16 18 19 19 19 20 20 20 19 20 20 22 23 23 21 19 18 19 21 21 22 23 20 16 16 18 17 16 17 21 19 22 22 21 21 19 21 20 21 21 20
5 2 2 4 6 6 5 7 8 10 12 15 16 17 16 15 15 15 16 16 17 18 21 21 19 18 19 20 20 21 22 21 20 20 18 19 nan nan nan nan nan 11 11 13 16 18 20 20 20 20 21 21 21 21 21 21 22 22 23 21 22 21 22 22 24 25 24 22 19 19 18 18 17 19 17 20 24 25 23 23 23 21 22 21 20
5 1 4 6 6 5 3 4 8 13 17 17 16 16 16 15 14 15 16 17 17 19 21 20 18 16 16 19 21 22 24 21 18 18 19 nan nan nan nan nan nan 13 13 13 15 17 20 21 22 21 22 22 22 22 22 22 22 23 23 22 23 23 21 21 22 25 25 22 21 22 21 21 19 18 19 22 21 nan 23 23 23 24 23 23 21
4 3 5 7 9 7 6 8 11 14 15 15 14 14 16 16 16 17 17 18 17 19 20 18 18 17 18 21 21 22 23 24 21 20 nan nan nan nan nan nan nan 15 17 18 16 16 18 21 22 22 22 23 23 25 24 23 23 23 22 22 23 22 23 22 23 23 20 23 21 22 23 21 21 22 19 20 22 23 nan nan nan nan nan nan 26
8 6 8 10 11 11 12 13 14 14 13 14 13 14 16 20 20 20 20 19 19 21 21 19 18 19 19 22 23 22 25 24 22 nan nan nan nan nan nan nan nan nan nan 22 19 18 18 19 21 22 22 23 24 25 25 25 25 24 24 23 23 23 21 22 22 22 20 21 21 21 21 23 23 21 21 20 23 26 nan nan nan nan nan nan nan
11 10 12 13 15 18 18 17 15 13 12 11 13 19 23 23 23 25 26 23 22 22 21 20 19 19 20 23 27 25 25 24 22 nan nan nan nan nan nan nan nan nan nan nan nan nan 19 19 20 22 23 23 23 25 26 26 25 26 25 24 24 24 23 24 25 24 21 21 19 21 21 22 24 21 23 21 23 23 nan nan nan nan nan nan nan
16 16 16 17 20 23 22 20 18 16 12 13 19 22 23 25 28 31 29 25 22 21 20 20 20 19 22 25 28 28 27 26 23 nan nan nan nan nan nan nan nan nan nan nan nan nan nan nan 21 21 22 22 nan nan 26 27 27 26 26 26 25 25 24 24 24 24 23 22 22 20 19 20 20 22 nan nan nan nan nan nan nan nan nan nan nan
20 20 20 21 24 26 25 24 21 18 15 15 19 24 29 33 32 31 27 23 20 20 20 21 22 22 23 26 29 29 28 26 24 23 22 nan nan nan nan nan nan nan nan nan nan nan nan nan nan nan nan nan nan nan nan nan nan nan nan nan nan nan nan 25 25 nan nan nan 22 nan nan nan nan nan nan nan nan nan nan nan nan nan nan nan nan
21 22 24 23 25 28 28 27 24 21 18 17 23 32 38 38 35 24 21 22 23 23 23 24 25 25 24 26 29 29 27 26 25 24 22 nan nan nan nan nan nan nan nan nan nan nan nan nan nan nan nan nan nan nan nan nan nan nan nan nan nan nan nan nan nan nan nan nan nan nan nan nan nan nan nan nan 20 nan nan nan nan nan nan nan nan
27 28 29 29 29 29 29 26 23 22 21 22 32 40 38 35 20 18 25 25 23 22 22 nan 24 24 24 24 27 27 26 25 23 23 21 21 nan nan nan nan nan nan nan nan nan nan nan nan nan nan nan nan nan nan nan nan nan nan nan nan nan nan nan nan nan nan nan nan nan nan nan nan nan nan nan nan nan nan nan nan nan nan nan nan nan
36 37 37 37 35 34 33 28 22 21 21 29 39 38 33 25 23 27 23 21 19 19 nan nan nan nan nan 22 22 24 24 22 22 22 nan nan nan nan nan nan nan nan nan nan nan nan nan nan nan nan nan nan nan nan nan nan nan nan nan nan nan nan nan nan nan nan nan nan nan nan nan nan nan nan nan nan nan nan nan nan nan nan nan nan nan
40 40 38 39 38 38 37 28 17 20 28 39 42 36 31 27 21 17 16 13 14 17 16 18 20 20 19 18 17 18 18 20 22 nan nan 26 nan nan nan nan nan nan nan nan nan nan nan nan nan nan nan nan nan nan nan nan nan nan nan nan nan nan nan nan nan nan nan nan nan nan nan nan nan nan nan nan nan nan nan nan nan nan nan nan nan
38 36 37 37 35 37 35 26 16 20 34 41 37 30 28 24 20 13 14 nan 11 12 12 13 15 14 12 12 12 12 13 17 20 23 nan nan nan nan nan nan nan nan nan nan nan nan nan nan nan nan nan nan nan nan nan nan nan nan nan nan nan nan nan nan nan nan nan nan nan nan nan nan nan nan nan nan nan nan nan nan nan nan nan nan nan
37 38 39 37 29 nan 33 30 23 27 37 36 32 27 19 17 17 18 20 9 7 10 13 12 10 9 10 11 11 12 12 15 19 20 22 nan nan nan nan nan nan nan nan nan nan nan nan nan nan nan nan nan nan nan nan nan nan nan nan nan nan nan nan nan nan nan nan nan nan nan nan nan nan nan nan nan nan nan nan nan nan nan nan nan nan
35 37 34 32 31 32 32 36 39 35 35 35 28 24 19 14 18 25 16 10 6 10 11 9 9 10 11 12 12 12 13 13 16 18 19 18 nan nan nan nan nan nan nan nan nan nan nan nan nan nan nan nan nan nan nan nan nan nan nan nan nan nan nan nan nan nan nan nan nan nan nan nan nan nan nan nan nan nan nan nan nan nan nan nan nan
nan 33 31 31 29 34 35 40 42 39 37 34 29 25 22 20 21 20 12 8 10 9 8 7 9 11 12 12 11 12 14 15 14 17 15 16 nan nan nan nan 20 nan 20 21 nan nan nan nan nan nan nan nan nan nan nan nan nan nan nan nan nan nan nan nan nan nan nan nan nan nan nan nan nan nan nan nan nan nan nan nan nan nan nan nan nan
30 32 32 33 34 37 37 39 39 35 33 31 27 23 21 21 18 16 13 9 8 8 8 7 10 11 13 13 14 14 15 15 15 14 13 14 nan nan nan nan nan nan nan nan nan nan nan nan nan nan nan nan nan nan nan nan nan nan nan nan nan nan nan nan nan nan nan nan nan nan nan nan nan nan nan nan nan nan nan nan nan nan nan nan nan
29 30 33 33 33 35 36 32 30 26 24 23 22 20 18 18 17 15 11 9 10 10 8 10 11 12 13 14 15 15 16 15 16 15 14 16 18 nan nan nan nan nan nan nan nan nan nan nan nan nan nan nan nan nan nan nan nan nan nan nan nan nan nan nan nan nan nan nan nan nan nan nan nan nan nan nan nan nan nan nan nan nan nan nan nan
30 32 32 31 29 29 29 29 26 23 21 20 19 17 16 15 16 17 13 11 12 13 13 12 13 14 14 14 15 14 15 17 17 17 15 16 18 nan nan nan nan nan nan nan nan nan nan nan nan nan nan nan nan nan nan nan nan nan nan nan nan nan nan nan nan nan nan nan nan nan nan nan nan nan nan nan nan nan nan nan nan nan nan nan nan
29 29 30 28 27 27 27 26 25 23 21 20 19 16 17 16 17 18 17 16 15 15 15 14 14 15 15 14 14 14 15 17 18 17 15 nan 18 19 nan nan nan nan nan nan 23 21 nan nan nan nan nan nan nan nan nan nan nan nan nan nan nan nan nan nan nan nan nan nan nan nan nan nan nan nan nan nan nan nan nan nan nan nan nan nan nan
29 30 30 30 29 28 26 24 24 23 22 22 21 20 18 17 16 18 19 18 17 17 16 16 17 17 16 14 14 15 15 16 18 18 17 17 19 21 21 22 22 21 20 22 21 21 20 21 20 20 21 nan nan nan nan nan 19 nan nan nan nan nan nan nan nan nan nan nan nan nan nan nan nan nan nan nan nan nan nan nan nan nan nan nan nan
28 28 29 28 26 25 25 24 23 24 23 22 21 21 20 19 18 19 19 19 20 19 18 18 18 18 18 18 18 18 18 18 19 20 20 21 23 24 23 21 20 19 19 20 23 22 22 23 22 19 18 19 19 20 21 nan nan nan nan nan nan nan nan nan nan nan nan nan nan nan nan nan nan nan nan nan nan nan nan nan nan nan nan nan nan
28 28 27 29 29 28 27 27 26 26 26 26 25 24 23 22 22 21 20 20 22 22 22 22 21 20 21 21 22 23 23 23 23 23 23 24 26 26 25 23 21 23 23 25 26 nan 23 23 22 20 18 20 20 18 19 20 nan nan nan nan nan nan nan nan nan nan nan nan nan nan nan nan nan nan nan nan nan nan nan nan nan nan nan nan nan
30 32 33 33 31 29 29 28 29 29 29 29 28 27 27 26 25 24 24 23 25 25 26 26 26 25 25 25 27 28 27 26 27 27 27 27 28 28 27 28 28 27 27 28 28 25 24 23 nan 21 22 24 23 21 19 20 20 20 nan nan nan nan nan nan nan nan nan nan nan nan nan nan nan nan nan nan nan nan nan nan nan nan nan nan nan
35 34 33 33 32 29 29 29 29 30 31 31 31 30 30 30 29 28 27 28 27 27 28 29 29 28 28 29 31 32 32 31 31 31 31 30 30 31 nan nan 30 28 28 28 28 27 26 25 24 22 23 24 24 24 24 25 24 24 23 23 24 25 nan nan nan nan nan nan 25 26 27 nan nan nan nan nan nan nan nan nan nan nan nan nan nan
37 36 35 35 35 35 34 34 34 35 35 36 35 35 34 34 33 32 32 32 31 30 30 31 31 32 33 33 34 35 35 36 36 35 35 35 34 34 33 33 32 31 30 29 29 28 27 27 26 23 24 nan 26 26 nan nan nan 28 29 nan nan nan nan nan nan 27 nan nan nan nan nan nan nan nan nan nan nan nan nan nan nan nan nan nan nan
41 40 40 40 41 41 42 nan nan nan nan nan nan 38 38 38 36 35 35 35 35 34 35 35 36 38 38 38 39 39 39 39 40 40 40 39 37 nan nan nan nan 34 nan 30 30 30 28 28 nan 26 26 28 28 30 nan nan 32 32 32 32 32 33 32 31 30 29 29 29 30 31 nan 35 34 nan nan nan nan nan nan nan nan nan nan nan nan
42 42 42 43 nan nan nan nan nan nan nan nan nan nan nan nan nan nan 38 38 37 38 38 39 42 43 42 41 41 41 42 42 42 41 42 41 40 38 37 36 35 34 33 33 33 32 30 nan nan 30 29 30 32 nan 37 36 36 35 34 33 33 33 32 30 29 28 28 29 30 31 33 34 nan nan nan nan nan nan nan nan nan nan nan nan nan
44 nan nan nan nan nan nan nan nan nan nan nan nan nan nan nan nan nan nan nan nan nan nan 44 45 45 45 43 42 41 41 42 41 41 41 40 39 38 38 37 36 36 36 34 34 35 nan nan 34 33 33 34 34 40 39 38 36 33 33 32 31 31 31 30 30 29 28 29 29 30 32 32 36 39 37 nan nan nan nan nan nan nan nan nan nan
nan nan nan nan nan nan nan nan nan nan nan nan nan nan nan nan nan nan nan nan nan nan nan nan nan nan 43 42 42 42 41 41 40 40 41 40 40 37 36 nan 36 nan 37 nan nan nan nan nan 38 36 36 37 36 41 39 39 37 35 35 32 31 32 32 32 33 32 31 31 30 30 31 34 37 38 38 41 43 46 nan nan nan nan nan nan nan
nan nan nan nan nan nan nan nan nan nan nan nan nan nan nan nan nan nan nan nan nan nan nan nan nan nan nan nan nan nan nan nan 38 38 39 39 39 nan nan nan nan nan nan nan nan nan nan nan 42 39 37 36 37 39 38 38 39 39 41 37 37 36 36 35 35 35 nan 33 31 32 33 35 38 39 41 44 46 nan nan nan nan nan nan nan nan
nan nan nan nan nan nan nan nan nan nan nan nan nan nan nan nan nan nan nan nan nan nan nan nan nan nan nan nan nan nan nan nan nan nan nan nan nan nan nan nan nan nan nan nan nan nan nan nan nan nan nan nan 37 38 37 38 41 44 44 42 nan nan 38 39 nan nan nan nan nan nan nan 37 39 41 46 47 47 nan nan nan nan nan nan nan nan
nan nan nan nan nan nan nan nan nan nan nan nan nan nan nan nan nan nan nan nan nan nan nan nan nan nan nan nan nan nan nan nan nan nan nan nan nan nan nan nan nan nan nan nan nan nan nan nan nan nan nan nan nan nan 37 38 42 45 43 42 nan nan nan nan nan nan nan nan nan nan nan 40 42 44 49 49 50 nan nan nan nan nan nan nan nan
nan nan nan nan nan nan nan nan nan nan nan nan nan nan nan nan nan nan nan nan nan nan nan nan nan nan nan nan nan nan nan nan nan nan nan nan nan nan nan nan nan nan nan nan nan nan nan nan nan nan nan 42 nan nan nan nan 44 43 41 45 nan nan nan nan nan nan nan nan nan nan nan nan nan nan nan nan nan nan nan nan nan nan nan nan nan
nan nan nan nan nan nan nan nan nan nan nan nan nan nan nan nan nan nan nan nan nan nan nan nan nan nan nan nan nan nan nan nan nan nan nan nan nan nan nan nan nan nan nan nan nan nan nan nan nan nan nan nan nan nan nan nan 47 44 42 45 45 nan nan nan nan nan nan nan nan nan nan nan nan nan nan nan nan nan nan nan nan nan nan nan nan
nan nan nan nan nan nan nan nan nan nan nan nan nan nan nan nan nan nan nan nan nan nan nan nan nan nan nan nan nan nan nan nan nan nan nan nan nan nan nan nan nan nan nan nan nan nan nan nan nan nan nan nan nan nan nan nan nan 45 41 44 46 nan nan nan nan nan nan nan nan nan nan nan nan nan nan nan nan nan nan nan nan nan nan nan nan
nan nan nan nan nan nan nan nan nan nan nan nan nan nan nan nan nan nan nan nan nan nan nan nan nan nan nan nan nan nan nan nan nan nan nan nan nan nan nan nan nan nan nan nan nan nan nan nan nan nan nan nan nan nan nan nan nan nan nan nan nan nan nan nan nan nan nan nan nan nan nan nan nan nan nan nan nan nan nan nan nan nan nan nan nan
nan nan nan nan nan nan nan nan nan nan nan nan nan nan nan nan nan nan nan nan nan nan nan nan nan nan nan nan nan nan nan nan nan nan nan nan nan nan nan nan nan nan nan nan nan nan nan nan nan nan nan nan nan nan nan nan nan nan nan nan nan nan nan nan nan nan nan nan nan nan nan nan nan nan nan nan nan nan nan nan nan nan nan nan nan
nan nan nan nan nan nan nan nan nan nan nan nan nan nan nan nan nan nan nan nan nan nan nan nan nan nan nan nan nan nan nan nan nan nan nan nan nan nan nan nan nan nan nan nan nan nan nan nan nan nan nan nan nan nan nan nan nan nan nan nan nan nan nan nan nan nan nan nan nan nan nan nan nan nan nan nan nan nan nan nan nan nan nan nan nan
nan nan nan nan nan nan nan nan nan nan nan nan nan nan nan nan nan nan nan nan nan nan nan nan nan nan nan nan nan nan nan nan nan nan nan nan nan nan nan nan nan nan nan nan nan nan nan nan nan nan nan nan nan nan nan nan nan nan nan nan nan nan nan nan nan nan nan nan nan nan nan nan nan nan nan nan nan nan nan nan nan nan nan nan nan
nan nan nan nan nan nan nan nan nan nan nan nan nan nan nan nan nan nan nan nan nan nan nan nan nan nan nan nan nan nan nan nan nan nan nan nan nan nan nan nan nan nan nan nan nan nan nan nan nan nan nan nan nan nan nan nan nan nan nan nan nan nan nan nan nan nan nan nan nan nan nan nan nan nan nan nan nan nan nan nan nan nan nan nan nan
nan nan nan nan nan nan nan nan nan nan nan nan nan nan nan nan nan nan nan nan nan nan nan nan nan nan nan nan nan nan nan nan nan nan nan nan nan nan nan nan nan nan nan nan nan nan nan nan nan nan nan nan nan nan nan nan nan nan nan nan nan nan nan nan nan nan nan nan nan nan nan nan nan nan nan nan nan nan nan nan nan nan nan nan nan
nan nan nan nan nan nan nan nan nan nan nan nan nan nan nan nan nan nan nan nan nan nan nan nan nan nan nan nan nan nan nan nan nan nan nan nan nan nan nan nan nan 54 55 56 nan nan nan nan nan nan nan nan nan nan nan nan nan nan nan nan nan nan nan nan nan nan nan nan nan nan nan nan nan nan nan nan nan nan nan nan nan nan nan nan nan
nan nan nan nan nan nan nan nan nan nan nan nan nan nan nan nan nan nan nan nan nan nan nan nan nan nan nan nan nan nan nan nan nan nan nan nan nan nan nan 55 57 58 58 57 nan nan nan nan nan nan nan nan nan nan nan nan nan nan nan nan nan nan nan nan nan nan nan nan nan nan nan nan nan nan nan nan nan nan nan nan nan nan nan nan nan
nan nan nan nan nan nan nan nan nan nan nan nan nan nan nan nan nan nan nan nan nan nan nan nan nan nan nan nan nan nan nan nan nan nan nan nan nan nan nan nan nan 59 59 61 60 nan nan nan nan nan nan nan nan nan nan nan nan nan nan nan nan nan nan nan nan nan nan nan nan nan nan nan nan nan nan nan nan nan nan nan nan nan nan nan nan
nan nan nan nan nan nan nan nan nan nan nan nan nan nan nan nan nan nan nan nan nan nan nan nan nan nan nan nan nan nan nan nan nan nan nan nan nan nan nan nan nan nan nan nan nan 57 57 nan nan nan nan nan nan nan nan nan nan nan nan nan nan nan nan nan nan nan nan nan nan nan nan nan nan nan nan nan nan nan nan nan nan nan nan nan nan
nan nan nan nan nan nan nan nan nan nan nan nan nan nan nan nan nan nan nan nan nan nan nan nan nan nan nan nan nan nan nan nan nan nan nan nan nan nan nan nan nan nan nan nan nan nan nan nan nan nan nan nan nan nan nan nan nan nan nan nan nan nan nan nan nan nan nan nan nan nan nan nan nan nan nan nan nan nan nan nan nan nan nan nan nan
Wind_Direction
272 274 281 286 286 287 278 271 277 286 284 298 314 332 339 347 268 263 278 290 285 276 271 271 271 270 268 270 275 283 285 286 285 285 284 282 282 284 285 285 286 285 283 281 277 271 268 268 268 271 268 269 269 267 265 261 260 263 264 269 271 268 274 272 273 274 274 271 269 268 264 257 253 250 255 256 256 254 253 252 254 256 257 259 258
268 270 278 281 279 283 274 267 275 290 298 311 321 326 324 298 274 264 274 286 289 286 278 273 267 262 271 276 282 283 287 288 286 284 283 281 280 278 280 284 287 287 285 282 277 268 266 267 266 267 271 270 270 268 269 269 268 267 270 273 272 280 279 283 278 281 279 276 275 275 273 267 263 261 261 258 251 255 255 255 256 256 258 261 260
267 272 276 278 279 279 278 269 272 281 287 299 293 283 282 271 253 257 269 276 286 279 271 265 256 255 266 279 284 280 272 278 282 282 281 280 277 275 275 281 288 290 292 291 286 278 272 268 266 267 267 269 271 270 273 273 269 270 274 273 276 270 271 274 277 269 272 272 264 266 272 272 273 268 265 259 254 253 254 256 256 260 258 261 265
256 268 278 272 271 270 272 276 276 272 277 281 276 277 260 255 254 262 268 271 270 269 264 261 258 258 260 272 273 278 284 283 283 284 280 nan nan nan 267 268 281 287 293 297 294 288 280 269 267 270 271 267 265 267 268 272 273 269 267 263 267 272 275 276 272 269 264 276 278 272 266 263 269 274 266 261 258 259 258 260 257 258 260 264 264
134 259 284 272 273 278 281 276 267 270 272 274 272 267 255 260 260 265 263 262 263 269 268 268 267 267 270 273 276 277 280 282 284 279 273 271 nan nan nan nan nan 284 293 298 296 292 285 277 270 267 268 267 268 266 266 266 267 268 268 266 268 267 275 276 275 272 271 266 271 279 279 277 266 262 268 265 254 260 255 258 260 258 258 259 260
100 64 342 280 278 277 271 262 261 255 254 251 252 254 258 259 261 261 257 258 265 270 272 271 275 280 284 285 284 283 284 286 286 284 275 268 nan nan nan nan nan 271 282 292 295 296 292 286 278 273 270 268 265 263 264 268 271 275 274 272 272 272 275 281 281 280 279 278 276 269 263 264 262 271 271 271 266 258 256 256 254 255 255 258 263
91 109 291 302 304 303 284 258 246 247 246 252 259 267 274 277 277 275 272 270 270 274 276 273 278 284 288 286 285 286 285 281 283 279 271 nan nan nan nan nan nan 274 278 282 289 293 292 287 281 275 271 269 266 264 263 263 264 263 268 273 273 271 272 278 281 281 281 280 280 274 269 267 263 273 271 273 278 nan 259 255 253 252 252 253 256
39 3 291 305 308 308 289 252 240 248 263 273 275 280 294 298 291 283 272 272 271 273 275 275 281 281 281 279 279 282 284 288 291 287 nan nan nan nan nan nan nan 276 288 288 283 282 285 286 283 278 274 270 267 264 262 262 264 265 266 267 270 271 275 273 275 277 280 280 277 272 269 267 267 268 266 273 277 281 nan nan nan nan nan nan 252
346 322 301 297 295 285 271 259 250 260 273 283 290 293 281 271 268 267 264 261 260 262 264 266 271 280 280 277 275 273 279 282 286 nan nan nan nan nan nan nan nan nan nan 290 282 275 277 280 279 275 270 269 268 267 265 262 262 265 268 269 270 271 266 267 270 270 271 273 279 272 275 272 268 267 269 275 280 282 nan nan nan nan nan nan nan
320 314 294 286 279 275 267 267 272 270 267 270 266 257 260 267 270 266 257 248 250 256 259 266 271 271 271 273 276 276 276 279 285 nan nan nan nan nan nan nan nan nan nan nan nan nan 275 278 276 272 269 268 265 265 265 263 261 261 261 262 264 265 265 263 262 265 265 268 274 276 276 275 273 273 271 276 277 275 nan nan nan nan nan nan nan
297 293 288 281 276 277 277 281 281 279 265 252 250 256 258 256 254 254 253 251 252 255 262 267 268 267 268 272 275 278 281 285 287 nan nan nan nan nan nan nan nan nan nan nan nan nan nan nan 275 271 267 265 nan nan 265 263 261 259 258 258 257 258 260 263 265 263 264 268 272 275 273 272 275 278 nan nan nan nan nan nan nan nan nan nan nan
291 293 290 286 282 281 281 283 288 288 278 261 252 250 246 245 249 249 247 250 254 257 262 263 263 262 260 271 278 281 286 286 290 292 291 nan nan nan nan nan nan nan nan nan nan nan nan nan nan nan nan nan nan nan nan nan nan nan nan nan nan nan nan 260 262 nan nan nan 266 nan nan nan nan nan nan nan nan nan nan nan nan nan nan nan nan
291 289 284 283 284 284 286 289 292 291 287 278 259 248 245 243 237 236 244 243 247 252 256 261 264 269 274 276 277 279 281 283 284 286 287 nan nan nan nan nan nan nan nan nan nan nan nan nan nan nan nan nan nan nan nan nan nan nan nan nan nan nan nan nan nan nan nan nan nan nan nan nan nan nan nan nan 277 nan nan nan nan nan nan nan nan
279 274 269 263 261 265 270 280 285 283 282 271 259 256 254 252 248 231 235 241 251 259 263 nan 270 273 276 276 277 278 277 277 278 280 282 284 nan nan nan nan nan nan nan nan nan nan nan nan nan nan nan nan nan nan nan nan nan nan nan nan nan nan nan nan nan nan nan nan nan nan nan nan nan nan nan nan nan nan nan nan nan nan nan nan nan
280 279 276 271 265 260 257 258 267 274 265 257 259 261 260 266 242 241 257 265 266 269 nan nan nan nan nan 270 274 279 277 274 274 275 nan nan nan nan nan nan nan nan nan nan nan nan nan nan nan nan nan nan nan nan nan nan nan nan nan nan nan nan nan nan nan nan nan nan nan nan nan nan nan nan nan nan nan nan nan nan nan nan nan nan nan
281 279 278 278 281 276 253 226 236 262 251 249 257 257 259 258 254 257 271 284 274 270 275 280 279 277 280 281 282 285 281 275 273 nan nan 285 nan nan nan nan nan nan nan nan nan nan nan nan nan nan nan nan nan nan nan nan nan nan nan nan nan nan nan nan nan nan nan nan nan nan nan nan nan nan nan nan nan nan nan nan nan nan nan nan nan
276 273 272 269 274 280 262 228 228 256 245 253 261 264 276 281 281 298 276 nan 272 289 302 293 284 282 288 299 297 295 294 287 281 281 nan nan nan nan nan nan nan nan nan nan nan nan nan nan nan nan nan nan nan nan nan nan nan nan nan nan nan nan nan nan nan nan nan nan nan nan nan nan nan nan nan nan nan nan nan nan nan nan nan nan nan
272 267 268 259 251 nan 262 240 256 266 257 259 262 269 291 301 315 293 265 282 289 286 285 284 295 300 296 302 302 296 287 282 284 283 278 nan nan nan nan nan nan nan nan nan nan nan nan nan nan nan nan nan nan nan nan nan nan nan nan nan nan nan nan nan nan nan nan nan nan nan nan nan nan nan nan nan nan nan nan nan nan nan nan nan nan
255 258 261 261 251 263 264 250 251 253 254 263 265 276 296 300 281 273 318 354 307 269 271 275 289 288 288 296 299 291 286 282 290 287 283 280 nan nan nan nan nan nan nan nan nan nan nan nan nan nan nan nan nan nan nan nan nan nan nan nan nan nan nan nan nan nan nan nan nan nan nan nan nan nan nan nan nan nan nan nan nan nan nan nan nan
nan 252 252 255 247 252 257 256 252 248 253 266 270 260 272 276 277 289 309 318 284 289 294 291 283 282 285 288 293 290 289 288 290 292 285 277 nan nan nan nan 277 nan 275 278 nan nan nan nan nan nan nan nan nan nan nan nan nan nan nan nan nan nan nan nan nan nan nan nan nan nan nan nan nan nan nan nan nan nan nan nan nan nan nan nan nan
248 250 251 255 250 250 253 251 246 245 255 265 265 262 266 273 282 284 301 318 312 292 300 292 283 286 289 297 295 293 292 287 286 282 275 271 nan nan nan nan nan nan nan nan nan nan nan nan nan nan nan nan nan nan nan nan nan nan nan nan nan nan nan nan nan nan nan nan nan nan nan nan nan nan nan nan nan nan nan nan nan nan nan nan nan
244 246 249 250 252 253 256 252 248 250 255 261 261 260 271 280 284 278 278 291 292 293 295 288 283 281 289 287 289 288 290 286 283 276 270 269 271 nan nan nan nan nan nan nan nan nan nan nan nan nan nan nan nan nan nan nan nan nan nan nan nan nan nan nan nan nan nan nan nan nan nan nan nan nan nan nan nan nan nan nan nan nan nan nan nan
246 246 247 249 248 250 254 253 250 249 247 248 253 258 257 267 266 263 273 276 273 278 282 281 278 278 280 280 282 286 286 286 282 278 281 278 277 nan nan nan nan nan nan nan nan nan nan nan nan nan nan nan nan nan nan nan nan nan nan nan nan nan nan nan nan nan nan nan nan nan nan nan nan nan nan nan nan nan nan nan nan nan nan nan nan
250 251 252 254 256 255 254 252 247 244 242 239 237 236 236 246 253 260 270 271 269 268 272 278 281 278 275 273 277 280 290 288 285 278 280 nan 285 289 nan nan nan nan nan nan 284 280 nan nan nan nan nan nan nan nan nan nan nan nan nan nan nan nan nan nan nan nan nan nan nan nan nan nan nan nan nan nan nan nan nan nan nan nan nan nan nan
249 250 252 254 254 252 250 249 242 235 231 230 230 232 236 244 254 257 262 266 265 264 266 272 276 278 271 269 272 280 287 289 285 280 284 285 291 295 295 290 279 273 273 276 273 273 272 274 275 277 273 nan nan nan nan nan 252 nan nan nan nan nan nan nan nan nan nan nan nan nan nan nan nan nan nan nan nan nan nan nan nan nan nan nan nan
250 248 246 247 249 249 246 243 241 236 234 234 238 242 246 248 251 253 257 261 263 263 264 264 263 265 267 269 273 277 283 287 285 282 286 289 291 295 298 293 284 275 270 272 277 274 273 274 276 279 273 268 265 260 255 nan nan nan nan nan nan nan nan nan nan nan nan nan nan nan nan nan nan nan nan nan nan nan nan nan nan nan nan nan nan
250 249 249 250 249 247 245 243 244 245 244 244 244 248 252 253 255 257 259 261 261 262 264 263 263 264 266 272 277 280 281 283 284 285 284 287 290 294 298 293 279 271 275 276 274 nan 270 272 276 276 273 272 271 265 259 259 nan nan nan nan nan nan nan nan nan nan nan nan nan nan nan nan nan nan nan nan nan nan nan nan nan nan nan nan nan
248 247 249 252 252 248 245 244 245 247 247 247 247 247 250 253 257 257 259 261 264 267 267 267 269 270 272 275 277 279 281 280 279 280 282 285 286 287 288 284 281 278 277 278 279 274 263 262 nan 272 267 265 265 263 261 262 262 266 nan nan nan nan nan nan nan nan nan nan nan nan nan nan nan nan nan nan nan nan nan nan nan nan nan nan nan
249 251 254 254 252 248 245 245 246 248 248 247 246 248 251 252 254 255 257 260 263 265 267 269 271 272 273 274 275 276 276 277 279 281 282 283 282 281 nan nan 282 280 275 274 272 269 263 260 263 267 267 264 261 258 257 259 259 263 267 269 269 266 nan nan nan nan nan nan 280 277 275 nan nan nan nan nan nan nan nan nan nan nan nan nan nan
253 255 256 256 254 252 251 249 247 247 247 248 249 250 251 253 254 256 258 261 264 265 266 266 269 272 272 273 273 274 275 275 276 278 279 279 280 279 279 278 278 275 270 263 264 260 255 256 261 263 260 nan 259 257 nan nan nan 260 265 nan nan nan nan nan nan 280 nan nan nan nan nan nan nan nan nan nan nan nan nan nan nan nan nan nan nan
254 254 254 255 255 254 254 nan nan nan nan nan nan 259 258 257 257 259 260 261 262 264 266 266 266 265 267 268 270 272 273 274 274 275 276 278 278 nan nan nan nan 271 nan 261 257 258 255 257 nan 263 262 261 261 261 nan nan 272 272 269 269 269 269 271 275 278 278 275 272 271 271 nan 270 271 nan nan nan nan nan nan nan nan nan nan nan nan
253 254 253 253 nan nan nan nan nan nan nan nan nan nan nan nan nan nan 263 265 265 265 266 267 267 267 268 268 269 270 272 273 274 275 275 276 276 276 276 275 272 271 267 262 260 258 255 nan nan 262 264 264 262 nan 268 268 268 272 271 268 267 268 270 272 272 271 268 265 265 266 267 267 nan nan nan nan nan nan nan nan nan nan nan nan nan
255 nan nan nan nan nan nan nan nan nan nan nan nan nan nan nan nan nan nan nan nan nan nan 266 266 267 268 268 269 270 270 270 271 270 271 272 274 274 274 273 271 267 263 263 261 259 nan nan 263 267 267 265 263 263 265 265 267 268 271 271 270 271 271 270 268 265 263 262 263 266 269 270 269 274 273 nan nan nan nan nan nan nan nan nan nan
nan nan nan nan nan nan nan nan nan nan nan nan nan nan nan nan nan nan nan nan nan nan nan nan nan nan 266 269 271 270 269 269 270 270 270 270 269 268 266 nan 267 nan 259 nan nan nan nan nan 267 267 267 265 264 262 263 265 265 266 268 271 268 267 266 263 261 259 260 261 263 267 270 273 275 277 276 277 278 276 nan nan nan nan nan nan nan
nan nan nan nan nan nan nan nan nan nan nan nan nan nan nan nan nan nan nan nan nan nan nan nan nan nan nan nan nan nan nan nan 270 271 272 271 270 nan nan nan nan nan nan nan nan nan nan nan 267 267 264 261 259 258 263 264 264 264 266 266 264 263 261 260 258 258 nan 262 265 269 273 275 277 278 279 281 284 nan nan nan nan nan nan nan nan
nan nan nan nan nan nan nan nan nan nan nan nan nan nan nan nan nan nan nan nan nan nan nan nan nan nan nan nan nan nan nan nan nan nan nan nan nan nan nan nan nan nan nan nan nan nan nan nan nan nan nan nan 255 251 254 259 263 264 265 265 nan nan 264 262 nan nan nan nan nan nan nan 279 279 279 279 282 282 nan nan nan nan nan nan nan nan
nan nan nan nan nan nan nan nan nan nan nan nan nan nan nan nan nan nan nan nan nan nan nan nan nan nan nan nan nan nan nan nan nan nan nan nan nan nan nan nan nan nan nan nan nan nan nan nan nan nan nan nan nan nan 253 259 265 269 269 266 nan nan nan nan nan nan nan nan nan nan nan 282 282 280 281 282 282 nan nan nan nan nan nan nan nan
nan nan nan nan nan nan nan nan nan nan nan nan nan nan nan nan nan nan nan nan nan nan nan nan nan nan nan nan nan nan nan nan nan nan nan nan nan nan nan nan nan nan nan nan nan nan nan nan nan nan nan 262 nan nan nan nan 268 273 270 269 nan nan nan nan nan nan nan nan nan nan nan nan nan nan nan nan nan nan nan nan nan nan nan nan nan
nan nan nan nan nan nan nan nan nan nan nan nan nan nan nan nan nan nan nan nan nan nan nan nan nan nan nan nan nan nan nan nan nan nan nan nan nan nan nan nan nan nan nan nan nan nan nan nan nan nan nan nan nan nan nan nan 269 271 267 268 269 nan nan nan nan nan nan nan nan nan nan nan nan nan nan nan nan nan nan nan nan nan nan nan nan
nan nan nan nan nan nan nan nan nan nan nan nan nan nan nan nan nan nan nan nan nan nan nan nan nan nan nan nan nan nan nan nan nan nan nan nan nan nan nan nan nan nan nan nan nan nan nan nan nan nan nan nan nan nan nan nan nan 267 263 265 268 nan nan nan nan nan nan nan nan nan nan nan nan nan nan nan nan nan nan nan nan nan nan nan nan
nan nan nan nan nan nan nan nan nan nan nan nan nan nan nan nan nan nan nan nan nan nan nan nan nan nan nan nan nan nan nan nan nan nan nan nan nan nan nan nan nan nan nan nan nan nan nan nan nan nan nan nan nan nan nan nan nan nan nan nan nan nan nan nan nan nan nan nan nan nan nan nan nan nan nan nan nan nan nan nan nan nan nan nan nan
nan nan nan nan nan nan nan nan nan nan nan nan nan nan nan nan nan nan nan nan nan nan nan nan nan nan nan nan nan nan nan nan nan nan nan nan nan nan nan nan nan nan nan nan nan nan nan nan nan nan nan nan nan nan nan nan nan nan nan nan nan nan nan nan nan nan nan nan nan nan nan nan nan nan nan nan nan nan nan nan nan nan nan nan nan
nan nan nan nan nan nan nan nan nan nan nan nan nan nan nan nan nan nan nan nan nan nan nan nan nan nan nan nan nan nan nan nan nan nan nan nan nan nan nan nan nan nan nan nan nan nan nan nan nan nan nan nan nan nan nan nan nan nan nan nan nan nan nan nan nan nan nan nan nan nan nan nan nan nan nan nan nan nan nan nan nan nan nan nan nan
nan nan nan nan nan nan nan nan nan nan nan nan nan nan nan nan nan nan nan nan nan nan nan nan nan nan nan nan nan nan nan nan nan nan nan nan nan nan nan nan nan nan nan nan nan nan nan nan nan nan nan nan nan nan nan nan nan nan nan nan nan nan nan nan nan nan nan nan nan nan nan nan nan nan nan nan nan nan nan nan nan nan nan nan nan
nan nan nan nan nan nan nan nan nan nan nan nan nan nan nan nan nan nan nan nan nan nan nan nan nan nan nan nan nan nan nan nan nan nan nan nan nan nan nan nan nan nan nan nan nan nan nan nan nan nan nan nan nan nan nan nan nan nan nan nan nan nan nan nan nan nan nan nan nan nan nan nan nan nan nan nan nan nan nan nan nan nan nan nan nan
nan nan nan nan nan nan nan nan nan nan nan nan nan nan nan nan nan nan nan nan nan nan nan nan nan nan nan nan nan nan nan nan nan nan nan nan nan nan nan nan nan nan nan nan nan nan nan nan nan nan nan nan nan nan nan nan nan nan nan nan nan nan nan nan nan nan nan nan nan nan nan nan nan nan nan nan nan nan nan nan nan nan nan nan nan
nan nan nan nan nan nan nan nan nan nan nan nan nan nan nan nan nan nan nan nan nan nan nan nan nan nan nan nan nan nan nan nan nan nan nan nan nan nan nan nan nan 263 261 260 nan nan nan nan nan nan nan nan nan nan nan nan nan nan nan nan nan nan nan nan nan nan nan nan nan nan nan nan nan nan nan nan nan nan nan nan nan nan nan nan nan
nan nan nan nan nan nan nan nan nan nan nan nan nan nan nan nan nan nan nan nan nan nan nan nan nan nan nan nan nan nan nan nan nan nan nan nan nan nan nan 263 265 265 263 262 nan nan nan nan nan nan nan nan nan nan nan nan nan nan nan nan nan nan nan nan nan nan nan nan nan nan nan nan nan nan nan nan nan nan nan nan nan nan nan nan nan
nan nan nan nan nan nan nan nan nan nan nan nan nan nan nan nan nan nan nan nan nan nan nan nan nan nan nan nan nan nan nan nan nan nan nan nan nan nan nan nan nan 254 260 264 265 nan nan nan nan nan nan nan nan nan nan nan nan nan nan nan nan nan nan nan nan nan nan nan nan nan nan nan nan nan nan nan nan nan nan nan nan nan nan nan nan
nan nan nan nan nan nan nan nan nan nan nan nan nan nan nan nan nan nan nan nan nan nan nan nan nan nan nan nan nan nan nan nan nan nan nan nan nan nan nan nan nan nan nan nan nan 260 264 nan nan nan nan nan nan nan nan nan nan nan nan nan nan nan nan nan nan nan nan nan nan nan nan nan nan nan nan nan nan nan nan nan nan nan nan nan nan
nan nan nan nan nan nan nan nan nan nan nan nan nan nan nan nan nan nan nan nan nan nan nan nan nan nan nan nan nan nan nan nan nan nan nan nan nan nan nan nan nan nan nan nan nan nan nan nan nan nan nan nan nan nan nan nan nan nan nan nan nan nan nan nan nan nan nan nan nan nan nan nan nan nan nan nan nan nan nan nan nan nan nan nan nan